Wind_Speed
7 7 7 7 7 7 7 7 7 7 7 7 7 7 7 7 7 7 6 6 6 5 5 5 4 4 4 5 8 10 12 8 7 9 7 5 6 6 7 7 8 9 9 9 7 6 6 6 8 10 6 2 0 1 1 2 2 3 2 1 2 2 2 4 3 3 3 4 5 8 7 12 8 3 4 8 17 14 15 15 13 19 20 19 19 22 29 34
8 8 8 8 8 7 7 7 8 8 8 8 8 8 8 8 8 7 7 7 6 6 6 5 5 5 5 6 8 11 11 6 12 12 8 7 8 8 8 8 9 9 9 8 6 5 5 4 7 9 5 1 2 1 1 1 2 3 3 2 3 4 4 3 2 1 6 7 7 10 9 10 5 3 4 8 11 13 15 12 13 16 17 20 24 26 31 35
8 8 8 8 8 8 8 8 8 8 9 8 8 9 9 9 9 8 7 7 7 7 6 6 6 6 6 7 8 10 7 5 8 8 7 9 10 10 10 9 9 9 8 7 7 5 3 5 6 5 3 0 3 1 1 1 2 2 3 1 5 5 3 3 5 4 9 10 11 10 11 15 11 5 4 9 13 16 14 10 11 14 14 16 20 25 28 32
8 8 8 8 8 9 9 9 9 9 9 9 9 9 9 9 9 8 8 7 6 6 6 7 7 7 6 6 7 8 4 4 3 3 6 9 10 11 11 10 9 8 8 6 7 6 5 6 4 0 2 1 4 1 1 3 2 2 3 4 5 4 2 5 5 10 10 9 12 9 12 16 11 11 5 7 12 12 9 9 10 11 12 12 16 22 25 28
8 8 8 9 9 9 9 10 10 10 10 10 10 10 10 9 9 8 8 7 6 5 5 6 6 6 5 5 6 6 2 4 3 4 7 9 10 11 10 9 8 8 8 7 7 6 6 4 1 3 3 0 3 3 2 3 2 1 2 4 4 3 5 4 5 10 8 9 12 9 12 10 7 14 11 12 13 6 5 8 10 11 12 13 15 20 24 27
8 9 9 9 10 10 10 10 10 11 11 11 11 11 10 10 9 8 7 6 5 4 4 4 5 5 4 5 4 3 3 2 3 5 9 10 12 12 9 7 7 9 8 7 8 7 6 3 3 3 2 1 1 0 4 3 1 2 3 3 2 3 5 3 6 8 8 12 11 8 10 9 13 15 12 19 15 7 7 8 12 14 14 17 19 22 24 25
10 10 10 11 11 11 11 11 11 11 11 11 11 11 11 11 10 8 7 6 5 4 4 3 3 2 3 3 4 5 5 2 4 7 9 12 14 12 9 6 6 9 7 8 11 7 5 6 4 2 3 3 1 1 4 4 3 3 1 4 6 8 8 6 8 11 14 17 12 12 13 10 17 13 9 17 13 9 11 11 15 16 18 21 23 23 23 23
11 11 12 12 12 12 12 11 11 11 11 11 11 11 11 10 9 7 6 5 5 4 4 2 2 2 2 1 4 5 4 2 6 8 9 13 14 11 9 6 7 9 6 9 10 4 3 5 4 2 3 1 1 2 4 4 5 3 1 2 6 8 8 10 13 16 19 16 14 20 19 14 18 15 11 13 10 9 12 13 15 17 20 22 21 21 21 22
11 11 12 13 13 13 12 11 11 10 10 11 11 11 11 10 9 7 6 5 4 3 3 2 3 4 3 2 5 5 3 4 7 8 9 12 14 11 8 7 7 8 6 9 10 3 2 2 1 2 2 1 0 3 5 4 3 1 1 1 7 8 8 13 13 14 16 10 15 24 17 13 14 13 12 9 7 9 12 14 14 16 18 17 17 19 20 20
11 12 13 14 13 13 12 11 10 10 11 12 12 11 10 10 9 7 5 4 3 2 2 4 5 5 5 3 6 5 4 6 7 8 11 14 15 10 6 6 6 6 6 8 11 7 3 2 1 1 3 0 1 2 3 3 1 2 3 5 9 9 5 10 12 12 11 7 16 22 12 7 6 6 8 5 4 8 13 13 12 15 15 13 15 17 18 20
12 13 14 14 14 13 12 11 11 11 12 12 11 10 10 9 7 6 4 3 3 4 6 8 10 13 14 11 7 4 3 6 8 11 13 15 17 12 5 6 6 8 8 7 8 6 5 2 1 1 2 1 1 3 2 2 2 2 5 6 7 9 6 8 12 10 8 7 14 23 16 11 9 6 7 5 4 9 13 12 11 13 11 11 13 15 18 19
13 14 14 14 13 12 12 11 11 11 12 11 10 9 8 7 6 6 6 6 6 8 9 13 15 15 18 14 5 2 3 7 10 14 14 14 17 12 3 5 6 7 6 5 5 5 6 5 5 5 0 1 1 2 1 2 2 1 4 4 3 8 8 4 7 4 3 5 8 12 13 12 10 7 8 6 7 11 13 11 10 10 8 9 10 12 16 18
14 14 15 14 13 12 12 11 11 11 10 9 8 7 7 7 7 8 9 10 10 10 11 12 11 7 9 7 2 4 5 8 11 16 19 16 15 9 2 2 4 4 4 5 4 5 7 7 6 5 1 3 1 1 2 3 3 1 3 4 2 5 5 4 2 1 6 5 6 2 5 5 7 7 7 5 8 13 13 10 9 8 7 7 7 9 12 16
14 14 15 14 13 12 12 12 11 10 8 7 7 7 8 8 8 10 11 13 12 12 11 10 8 7 7 3 1 6 7 8 11 20 25 19 13 9 5 2 3 2 2 4 4 5 7 6 6 4 2 3 1 2 4 6 4 2 3 3 3 3 2 6 5 3 6 2 4 6 5 2 5 6 6 4 7 14 12 8 8 7 6 6 6 7 9 13
14 14 14 14 13 12 11 12 10 8 7 7 9 10 9 9 9 9 11 12 12 10 10 9 8 7 6 2 1 8 10 10 13 22 25 19 12 8 8 6 3 2 1 4 4 4 7 7 7 5 3 3 4 4 4 4 4 4 3 2 4 3 1 4 8 6 4 2 8 8 6 2 6 6 5 5 7 13 12 8 7 7 7 6 6 6 7 10
13 13 13 12 12 11 11 11 8 7 7 8 11 10 10 10 10 12 12 13 13 11 8 6 5 6 5 1 5 9 10 10 14 22 23 14 7 7 10 7 7 7 3 3 6 4 7 8 6 5 3 6 6 4 4 4 4 4 3 1 3 3 1 3 6 10 4 4 10 7 8 4 4 6 6 6 8 12 11 8 7 7 6 6 5 5 5 7
13 13 12 12 11 10 10 9 7 6 8 14 17 17 16 13 10 11 10 11 13 13 13 9 5 7 5 4 6 6 9 11 14 23 24 13 6 7 8 5 6 9 4 5 10 8 7 6 3 3 4 5 3 3 5 4 4 4 3 3 2 2 2 1 3 9 10 9 8 10 9 7 6 7 7 6 8 11 10 8 7 6 5 5 5 4 5 5
13 12 12 11 10 8 8 6 6 7 12 18 21 24 26 23 18 15 10 7 5 7 10 11 8 6 4 7 6 7 10 11 14 23 25 14 7 8 7 4 5 7 5 6 10 8 5 5 3 3 5 6 5 6 5 1 2 2 2 2 2 3 2 2 2 5 10 13 10 11 10 8 8 7 6 5 7 10 9 7 6 6 6 5 5 4 4 4
12 12 11 11 9 7 6 4 5 7 13 16 15 16 18 20 21 22 21 16 7 3 4 6 5 5 1 5 8 10 7 9 15 23 28 17 7 8 10 7 5 6 6 3 6 6 4 4 5 5 5 6 5 3 3 5 5 6 3 3 3 2 3 2 3 2 9 13 8 8 10 9 8 6 7 6 6 9 9 7 6 5 5 5 4 4 4 4
12 11 10 9 7 5 4 3 4 6 10 12 10 6 5 6 9 10 14 16 7 4 5 2 2 4 1 4 9 13 6 6 14 22 31 22 5 6 10 8 7 8 5 2 3 4 3 7 6 4 5 5 5 4 1 0 2 5 5 4 3 4 3 3 3 2 6 9 5 6 10 8 7 7 7 6 6 8 8 7 6 5 5 5 5 5 4 4
12 11 10 8 7 5 3 3 3 5 7 9 10 3 2 3 5 2 2 8 6 8 9 4 4 5 3 3 10 14 3 4 14 22 33 22 6 6 7 6 8 7 4 2 3 2 5 8 5 6 5 2 4 4 3 6 7 6 6 6 5 3 3 5 4 2 2 7 3 5 9 5 4 5 6 7 7 7 8 8 7 7 6 5 6 6 5 5
12 10 9 8 6 4 4 5 4 4 5 7 9 5 3 6 10 10 6 6 4 9 9 7 9 6 6 4 11 13 3 7 14 20 30 22 9 6 3 5 9 4 5 4 3 4 7 6 7 9 4 3 6 7 7 8 7 6 4 5 4 3 2 4 5 5 4 6 5 4 7 4 2 3 4 4 5 5 6 8 8 8 7 6 7 7 6 5
10 9 8 8 5 3 5 6 6 5 6 8 10 8 8 10 13 11 6 6 2 5 6 6 8 6 8 7 12 13 9 8 6 12 25 17 6 5 3 6 9 7 7 7 6 5 5 4 8 8 4 4 8 9 8 7 5 5 5 4 2 3 2 1 3 6 6 4 7 7 6 3 1 2 2 1 2 4 4 5 6 7 8 8 8 7 7 8
8 8 7 7 4 5 6 6 7 8 9 12 13 11 10 10 10 8 4 5 3 3 2 2 3 4 5 6 11 9 7 5 2 10 21 12 3 3 4 5 8 8 7 9 11 9 4 5 7 5 6 8 8 9 9 7 4 3 3 4 2 1 1 2 3 3 7 7 6 9 5 0 3 2 1 1 2 3 4 5 4 4 6 6 7 7 7 8
8 8 7 8 4 6 7 5 5 8 9 10 11 10 9 7 7 5 4 5 3 3 3 2 3 5 5 10 13 4 3 4 4 10 17 10 3 2 3 2 5 4 1 7 11 9 5 6 5 5 8 9 7 6 7 4 3 4 1 2 3 3 2 6 7 3 6 3 4 5 2 2 3 3 4 3 2 4 4 5 6 5 6 6 6 7 6 6
8 8 7 8 4 6 5 3 3 4 4 5 7 7 6 4 5 3 3 5 4 3 5 4 3 8 8 12 12 1 5 4 4 15 20 14 5 1 4 3 2 2 4 4 6 4 4 7 5 6 7 9 8 5 4 3 4 4 1 2 1 2 5 9 9 3 3 2 4 5 2 2 2 4 6 6 4 6 5 5 7 6 6 7 6 7 6 6
9 10 9 7 4 4 4 2 4 3 1 3 5 6 4 4 4 2 3 6 4 2 5 4 3 8 8 10 11 3 3 7 4 16 20 16 8 1 6 5 2 2 2 3 4 1 3 8 9 8 7 8 7 4 4 3 4 2 1 3 4 2 6 9 8 4 3 1 1 4 3 1 3 4 5 6 5 6 7 7 7 7 7 8 7 7 7 7
11 12 10 5 3 3 4 4 5 3 3 5 5 5 4 4 4 2 5 5 3 1 2 3 3 6 6 9 12 6 1 6 3 11 17 17 12 4 7 5 3 4 4 5 4 2 2 7 8 7 7 5 3 3 6 2 2 5 3 4 5 2 5 6 5 3 1 2 1 4 3 0 4 1 3 5 4 6 9 10 9 9 9 8 7 8 7 7
11 12 10 4 3 4 5 5 4 4 5 6 6 5 5 5 3 3 6 3 1 1 0 2 3 5 6 7 10 6 3 4 4 7 13 15 15 7 6 3 4 7 8 7 6 2 0 2 2 4 5 3 3 5 4 2 1 7 4 4 3 3 3 4 5 2 2 2 3 5 4 1 4 1 3 3 5 8 10 9 9 9 9 9 8 8 8 6
12 12 12 6 3 3 4 5 4 6 5 6 6 6 6 4 4 5 4 1 1 1 1 3 2 3 6 7 6 6 7 5 3 6 7 7 12 10 4 1 4 8 7 7 5 0 2 3 1 4 2 2 4 3 1 3 2 5 6 5 4 5 4 3 2 3 4 2 5 5 6 3 2 3 5 5 5 6 7 6 7 8 8 9 8 7 8 6
13 14 15 12 6 3 3 3 4 6 5 6 7 6 5 4 5 6 3 1 0 2 3 4 3 4 7 5 4 6 6 6 6 7 7 5 9 10 6 5 4 5 5 6 5 4 5 6 3 1 1 2 2 1 1 2 4 4 6 4 3 4 4 4 4 4 4 3 6 4 4 4 2 4 5 7 5 3 6 7 8 10 10 9 8 7 7 7
14 14 17 18 13 8 3 2 4 6 5 7 7 4 4 4 4 3 0 3 1 2 2 1 3 4 4 4 5 5 4 5 5 6 5 4 6 6 5 4 1 3 5 3 3 5 3 3 4 4 3 4 5 3 4 6 7 6 5 5 4 3 4 3 3 2 1 5 3 1 1 2 4 5 4 7 6 3 4 5 7 10 11 9 8 7 6 6
13 14 16 18 18 13 7 3 5 6 7 9 6 4 6 6 2 1 2 2 1 1 0 1 3 3 4 5 5 5 3 3 4 6 4 3 5 3 3 4 2 1 1 1 2 4 3 4 6 4 4 4 5 4 3 4 5 5 3 4 4 2 3 2 4 2 2 5 3 0 1 3 4 3 3 4 4 3 3 4 5 8 9 9 8 7 6 6
12 14 15 17 19 16 9 4 4 7 9 8 5 5 8 5 1 1 1 2 1 2 2 1 3 4 5 4 3 4 4 3 3 5 4 3 5 4 4 6 7 3 2 3 2 2 2 3 4 3 2 3 3 2 1 2 1 2 2 5 4 3 3 2 3 2 3 5 5 3 0 3 2 2 3 2 1 1 2 3 3 3 5 6 5 6 6 7
11 14 16 17 20 18 10 5 5 8 9 7 6 6 6 2 3 1 0 2 1 2 2 2 3 5 5 4 3 3 2 2 3 5 5 4 3 3 3 5 6 4 3 3 1 1 2 3 4 2 1 3 3 2 2 4 1 2 2 4 2 2 4 2 3 4 2 2 4 3 2 4 3 1 2 2 3 3 3 4 3 3 4 4 5 6 7 7
8 12 16 19 20 17 11 6 7 8 7 6 8 5 2 3 2 2 1 0 1 0 2 4 4 5 4 4 4 5 3 2 4 4 4 3 2 2 2 3 4 4 3 3 0 1 2 3 4 2 2 3 2 2 3 4 0 2 2 1 3 3 5 2 2 2 3 2 3 2 2 4 2 1 3 3 4 5 5 6 6 6 5 5 6 7 7 8
5 7 13 23 24 15 9 7 9 8 6 7 8 4 1 2 2 2 1 0 1 2 3 2 2 2 2 2 4 6 5 3 3 4 2 1 1 3 3 3 2 3 2 1 1 0 2 2 5 1 1 1 1 3 5 3 3 3 1 2 2 1 3 3 1 4 4 1 3 2 3 4 2 2 3 3 4 7 7 8 8 7 6 7 9 9 9 9
2 2 9 23 23 12 7 9 10 9 7 8 7 4 1 1 1 2 1 1 0 2 5 2 0 1 1 1 2 5 5 3 3 3 2 1 1 1 2 3 2 2 2 0 1 0 2 1 6 2 3 2 3 4 4 5 3 4 2 1 2 2 1 1 1 1 2 2 4 4 4 3 3 3 2 3 6 8 9 8 7 8 9 9 10 10 10 9
2 2 5 18 18 10 9 10 10 9 8 6 4 2 2 1 0 2 2 2 1 3 4 1 1 2 2 2 1 4 4 2 1 2 2 1 1 2 2 1 2 2 3 1 2 1 1 2 3 4 1 2 4 3 2 4 5 3 2 3 2 3 3 1 0 2 1 2 3 4 5 3 5 5 4 6 8 9 8 7 7 10 11 10 9 9 9 8
3 3 3 16 15 7 11 15 12 9 7 5 2 2 2 1 1 3 2 1 1 2 2 1 1 3 2 1 1 1 2 3 2 2 1 1 1 0 1 0 2 4 5 3 3 1 1 2 3 5 4 2 1 1 2 2 1 2 3 3 3 1 0 0 1 2 2 1 2 3 5 5 5 4 6 8 8 8 8 7 7 9 9 9 9 8 8 7
4 3 4 19 15 1 6 15 11 4 5 4 2 2 2 2 1 3 2 0 1 1 2 3 3 3 2 2 1 0 2 3 2 2 1 1 1 0 2 3 2 2 3 4 3 1 1 1 2 3 4 1 3 3 3 4 4 3 2 2 2 0 1 1 3 3 1 2 4 2 5 7 5 3 6 6 6 7 8 7 7 7 8 8 8 8 8 7
6 3 5 17 11 8 10 9 4 3 5 3 2 2 2 2 2 3 4 2 2 2 3 4 3 2 2 1 1 1 2 2 2 1 1 1 1 2 3 3 3 1 1 1 2 1 1 2 1 3 4 3 4 4 1 2 3 4 2 2 4 3 4 4 3 4 1 1 1 2 2 7 5 4 5 5 6 6 6 7 7 7 7 7 7 7 7 7
4 2 6 13 6 8 14 7 3 5 4 0 1 2 2 3 2 3 3 4 2 2 4 3 1 2 1 1 1 2 2 1 0 0 1 2 2 4 4 2 3 2 2 0 1 1 0 2 1 4 4 3 4 5 2 1 3 2 1 1 4 2 3 5 5 3 1 3 1 1 3 7 5 3 5 5 5 5 5 6 7 6 5 5 6 6 6 6
3 2 5 15 8 2 6 4 2 4 3 2 4 3 3 2 2 3 3 3 2 2 3 2 0 1 1 1 3 2 1 1 1 1 1 2 2 3 4 3 2 2 1 0 1 1 1 0 1 3 5 6 6 6 5 4 1 2 3 1 3 4 5 4 2 2 1 4 4 3 4 7 5 2 3 5 5 6 7 7 7 6 5 5 5 5 5 5
4 1 4 15 18 10 4 3 6 6 3 4 5 3 3 3 2 1 2 2 2 2 3 1 0 1 1 2 4 2 1 1 1 1 1 2 2 2 2 4 3 2 2 2 2 1 2 2 2 2 2 4 4 4 4 3 2 1 2 3 3 5 7 4 1 3 2 4 4 5 6 7 5 3 4 6 6 7 8 7 6 6 6 6 5 6 5 5
3 3 2 8 13 10 4 1 5 6 5 5 4 3 3 3 2 1 2 2 2 2 3 2 1 2 3 3 3 2 2 2 1 1 1 2 3 3 2 4 3 3 3 3 3 3 2 1 2 5 6 5 6 7 4 2 2 5 5 5 5 4 6 5 4 3 4 3 3 7 8 9 11 9 7 7 6 7 8 7 7 7 6 6 6 6 6 6
2 2 1 1 3 5 5 4 5 4 3 4 3 1 2 2 2 2 2 1 1 2 3 2 2 2 1 2 2 0 1 2 2 1 2 3 4 4 3 2 2 2 3 3 1 3 3 3 3 5 7 8 8 9 6 2 5 9 8 6 7 6 6 7 5 6 4 3 5 9 7 7 12 12 9 9 7 7 7 7 8 8 7 7 6 6 6 6
3 2 1 1 2 2 3 2 3 6 5 4 3 2 2 3 2 1 1 2 2 2 2 2 4 3 1 1 2 1 1 2 1 1 1 2 3 4 3 1 1 1 3 3 2 3 4 3 4 3 5 9 8 9 8 5 6 8 8 8 8 8 9 10 10 8 7 5 10 9 5 7 12 13 12 10 7 7 9 8 7 7 6 6 5 6 7 7
3 4 1 3 3 3 2 2 4 7 6 4 4 3 3 3 2 1 1 2 3 3 3 2 3 4 3 2 3 3 2 1 1 3 2 2 2 1 2 2 1 2 2 2 2 2 3 3 3 2 5 9 10 10 7 5 5 6 8 10 9 9 12 13 11 8 9 11 14 12 10 13 14 13 13 10 7 7 7 5 5 5 6 6 6 7 8 8
3 3 1 3 4 2 2 3 4 6 5 4 3 2 2 3 2 2 0 2 0 2 2 3 4 3 1 1 4 3 5 5 3 4 4 3 2 2 2 3 2 2 3 2 1 1 0 3 1 3 3 8 9 7 4 3 4 7 10 11 9 8 9 10 9 6 7 10 14 12 11 13 13 10 10 8 6 4 4 5 6 7 7 7 7 8 8 8
5 5 6 7 4 3 3 3 3 5 3 3 2 2 1 2 4 3 0 1 3 2 1 4 5 3 1 2 1 4 6 6 5 5 6 5 3 3 3 2 3 0 3 1 0 2 1 2 2 5 3 7 5 5 5 4 4 7 12 13 11 8 7 7 6 6 7 8 9 6 6 10 9 4 4 5 4 5 7 8 7 7 6 7 8 9 9 8
8 6 5 7 4 3 2 2 3 4 2 1 2 2 1 3 4 3 2 1 2 2 3 5 5 2 1 1 3 5 5 6 6 5 5 4 3 3 4 3 4 4 2 2 1 1 2 1 1 2 2 7 5 4 4 5 6 7 9 9 9 8 6 5 5 7 9 7 4 5 7 8 5 1 3 6 6 7 8 8 7 7 7 7 8 9 8 8
Wind_Direction
50 45 41 39 35 30 24 19 17 12 11 5 360 354 344 334 321 313 307 306 307 308 311 307 308 308 306 327 342 349 352 15 73 74 67 30 12 4 351 345 345 339 334 332 330 334 335 354 11 8 5 7 10 249 258 190 104 68 111 134 228 192 198 228 224 219 125 98 52 27 39 104 115 47 92 43 28 40 57 52 45 49 47 45 39 38 50 60
45 40 34 31 26 22 17 11 9 6 6 2 360 355 348 344 332 321 308 302 300 297 301 297 297 294 295 318 330 344 354 63 84 61 43 21 15 6 357 351 347 340 334 336 339 357 12 336 340 4 27 73 285 266 302 247 121 121 134 122 227 202 214 251 298 268 109 121 98 63 53 67 59 347 57 66 33 31 50 33 29 42 35 34 33 36 46 54
34 29 23 18 12 7 4 0 359 357 356 355 353 349 346 343 336 330 316 303 299 292 293 291 292 291 298 315 325 339 353 101 80 36 19 16 13 6 3 352 342 337 330 335 336 334 333 303 313 355 44 334 285 297 15 286 198 176 116 112 246 205 209 344 17 73 116 130 102 75 68 56 26 10 74 96 67 41 43 19 22 40 32 32 32 35 42 49
23 17 12 6 1 357 353 351 349 347 347 345 343 343 340 337 334 329 320 308 303 298 292 288 288 293 303 317 329 333 355 81 42 339 0 5 3 3 2 352 348 344 331 332 335 325 309 302 296 61 88 324 311 16 183 256 223 177 131 179 230 183 110 14 50 94 103 107 98 92 77 67 40 34 55 110 76 40 33 23 33 47 40 41 39 40 44 49
13 8 2 356 351 347 345 343 341 340 339 337 337 337 336 334 332 324 317 307 301 303 301 290 288 295 310 325 328 318 27 57 328 322 351 353 359 357 356 355 358 355 345 341 338 342 331 313 96 69 71 320 332 23 240 249 146 151 218 203 213 155 110 46 66 90 97 94 88 81 68 81 74 43 43 79 80 60 34 27 43 52 49 51 48 48 47 49
7 2 357 351 346 342 339 337 335 335 334 333 334 334 335 332 330 324 313 303 297 306 309 295 289 297 317 332 343 345 101 99 302 348 357 356 358 352 353 350 353 355 348 349 352 7 8 16 61 53 55 23 338 330 260 291 69 188 292 327 351 67 95 61 55 64 83 84 70 74 82 97 91 64 51 71 79 86 65 47 55 54 54 58 55 53 50 48
3 359 356 349 345 341 337 335 333 334 333 333 334 334 333 331 330 327 317 308 302 308 315 314 309 318 334 9 58 54 86 103 321 355 358 359 354 345 353 338 339 348 344 360 358 6 32 35 38 89 74 22 1 284 277 320 20 154 290 3 42 59 72 76 79 76 76 80 78 88 87 81 89 83 62 72 79 84 75 62 61 58 57 58 55 54 52 52
359 357 354 348 345 342 338 338 336 336 335 335 336 335 334 334 335 333 329 323 318 320 318 325 347 26 8 80 103 57 51 335 334 358 354 353 348 341 349 337 336 344 356 13 357 339 50 46 34 60 63 1 192 336 323 357 25 92 85 18 78 72 84 91 89 92 88 89 90 83 77 78 91 92 74 74 79 77 77 66 60 60 56 54 54 54 54 54
356 354 352 348 344 342 341 341 341 339 338 340 341 340 338 337 337 336 333 328 327 324 324 26 59 72 67 106 105 68 358 318 343 1 352 348 347 339 341 344 343 346 3 20 19 31 77 69 28 61 103 253 20 352 348 25 19 100 111 94 108 107 115 103 93 96 97 103 97 87 86 96 99 92 73 65 79 81 75 65 57 60 57 53 54 53 55 56
352 350 350 348 345 345 345 346 346 343 343 346 346 345 343 339 339 340 341 342 346 356 48 79 82 75 71 77 79 63 329 339 6 3 352 349 351 347 350 4 357 2 16 28 39 52 86 123 252 164 140 99 11 346 4 70 109 196 135 97 108 121 124 104 105 108 98 94 98 95 91 78 65 73 78 68 84 85 72 61 55 61 61 58 57 54 55 55
350 348 348 347 348 349 350 352 351 348 349 351 351 349 348 351 0 7 15 25 44 75 88 94 97 88 79 78 77 66 341 358 8 358 352 349 354 354 3 25 11 17 24 30 44 51 64 74 249 108 103 75 335 343 26 122 144 181 126 83 78 95 81 86 116 128 98 90 105 101 87 51 33 60 98 108 91 81 77 66 57 64 65 63 62 58 56 55
349 346 347 349 351 352 355 358 355 352 355 356 356 358 10 26 42 53 60 62 70 82 101 110 111 98 78 72 70 65 14 14 14 3 356 345 350 352 4 42 16 13 12 10 26 27 29 19 45 78 83 142 81 355 88 179 126 114 86 71 13 76 82 84 131 157 84 141 154 103 72 40 40 84 106 111 101 81 76 70 60 64 65 64 65 63 60 57
348 346 347 350 353 354 359 1 359 359 2 5 11 27 45 53 57 68 72 74 83 89 107 118 121 108 73 68 58 51 23 21 22 7 1 348 348 6 59 38 348 354 353 339 353 8 15 12 45 90 143 96 116 284 87 10 36 37 31 68 353 39 47 8 101 126 70 140 225 45 57 40 64 103 111 113 103 85 74 68 65 61 63 65 63 66 65 60
345 345 347 351 353 356 358 1 3 7 13 24 46 63 69 72 70 75 78 81 90 93 99 101 105 98 76 96 82 34 10 12 14 0 359 351 353 25 41 5 315 319 341 336 2 20 15 13 36 76 75 72 246 318 37 7 19 33 4 37 22 52 20 2 31 63 78 58 327 67 104 124 114 115 112 117 99 92 85 74 72 65 63 63 62 66 66 64
345 346 349 351 351 354 356 359 6 16 33 57 76 78 79 83 80 79 83 87 88 88 91 80 84 93 77 95 16 8 357 2 6 358 358 355 0 18 7 16 40 34 11 355 25 26 20 38 52 54 345 349 37 41 26 358 13 41 44 342 352 81 211 359 25 18 106 74 8 71 109 110 129 125 114 121 99 97 96 86 81 74 69 67 63 66 69 69
347 348 353 351 349 351 351 357 13 32 60 85 87 85 89 94 93 90 90 90 82 75 76 55 54 92 88 37 333 355 355 354 356 356 2 7 10 1 353 22 50 35 55 42 36 31 38 56 63 58 20 6 38 65 50 24 359 3 73 136 333 57 348 344 28 7 52 89 10 54 126 131 128 130 124 122 106 101 101 97 89 83 79 77 74 71 72 71
349 351 354 351 350 348 345 357 24 51 91 100 89 84 84 87 99 104 98 87 78 70 65 46 54 98 74 358 340 343 339 340 347 357 7 19 13 359 3 33 29 19 57 54 31 26 31 41 36 50 45 24 18 64 59 22 337 331 27 64 342 41 37 330 28 9 37 76 47 62 106 121 123 133 128 123 116 107 105 109 103 101 96 89 88 79 76 76
348 349 352 352 351 347 344 359 36 76 118 112 94 86 81 78 81 83 77 75 72 58 53 32 43 91 26 353 344 316 324 344 355 2 11 20 23 28 35 39 0 11 48 36 22 21 18 28 52 56 27 16 13 51 85 226 240 261 312 53 353 13 57 33 5 355 45 73 79 82 95 114 123 128 123 124 123 110 112 121 117 118 113 106 101 91 88 85
345 345 348 352 356 353 349 4 47 96 138 132 113 101 87 76 72 65 56 59 60 49 49 351 18 105 282 316 325 325 335 4 8 8 11 11 21 46 44 38 19 37 57 34 11 16 29 40 43 40 6 353 350 17 150 203 191 185 200 131 141 76 62 58 52 55 81 73 64 89 109 127 133 133 130 135 126 114 121 125 125 130 124 120 115 112 111 101
343 345 348 357 5 4 7 22 58 105 145 156 150 122 95 75 60 43 37 52 64 83 97 333 14 98 1 294 335 353 350 4 16 12 8 5 2 38 28 22 34 48 54 72 35 358 49 62 36 0 303 308 331 313 269 138 126 138 120 90 110 110 70 53 99 168 104 79 42 89 113 128 137 141 140 141 129 124 132 134 141 148 140 142 138 137 134 127
348 351 355 4 12 18 48 41 52 107 129 168 178 143 148 142 90 139 17 55 52 62 77 34 47 74 1 307 348 1 337 350 16 10 7 9 24 32 8 7 44 46 351 9 78 359 53 59 4 322 282 271 8 347 43 55 59 83 105 91 63 82 75 57 81 276 60 90 96 108 107 101 115 138 148 147 143 144 149 149 158 159 151 154 150 153 153 146
353 357 0 7 13 42 91 66 63 113 114 145 154 116 124 137 125 148 138 87 34 38 61 35 42 40 351 11 1 359 30 16 7 4 5 9 28 36 5 34 61 60 342 9 60 38 50 37 332 328 302 150 56 32 59 61 65 67 71 99 61 21 75 67 42 4 23 98 147 134 101 81 64 112 137 158 157 157 164 164 166 162 158 164 164 163 163 161
359 0 3 2 12 88 110 81 77 98 111 123 118 101 112 124 138 149 114 98 71 14 37 33 44 17 354 20 2 3 49 38 353 349 359 4 31 49 66 59 67 66 34 50 75 76 66 343 317 327 331 78 50 29 46 52 53 57 57 86 48 352 91 120 21 15 18 71 137 132 97 87 44 62 67 47 126 137 158 164 163 165 167 172 174 171 168 169
7 4 5 3 17 123 118 93 84 83 100 113 103 108 126 131 152 156 99 86 81 3 16 49 70 38 359 353 346 1 62 49 6 349 357 10 37 31 74 86 76 62 54 77 82 84 78 314 310 340 21 57 54 27 35 43 19 13 72 97 101 248 153 138 134 93 45 46 119 122 79 111 200 169 138 33 93 131 142 146 150 168 172 168 172 177 177 176
16 9 10 7 19 147 131 91 89 86 94 103 101 117 126 129 163 156 95 66 37 329 342 23 42 19 345 343 345 350 96 51 59 4 356 15 20 9 66 81 79 67 118 88 78 79 49 337 342 27 33 47 57 40 29 40 22 346 287 144 133 180 161 132 154 140 63 23 210 144 57 287 208 197 194 177 160 172 173 167 168 171 169 167 174 182 185 182
26 18 15 9 22 158 153 77 104 107 90 91 105 126 122 123 161 156 97 64 32 323 352 0 5 4 348 342 337 355 72 6 27 17 7 11 359 104 67 350 60 117 201 111 75 90 27 351 26 52 43 42 45 44 13 48 61 356 274 141 105 178 157 156 173 169 88 224 226 168 185 286 258 235 204 183 186 197 205 199 189 184 180 183 185 185 183 182
31 19 14 8 25 157 181 131 142 155 118 119 122 130 128 117 130 120 74 51 11 307 355 334 338 8 358 349 347 69 68 299 337 17 7 8 353 71 68 12 29 20 240 104 55 44 6 1 23 37 40 43 36 14 326 29 75 306 306 42 336 219 164 174 182 184 182 188 68 162 180 326 276 247 184 171 188 211 221 220 206 197 197 197 195 190 186 185
29 18 14 12 38 110 159 146 146 144 121 149 142 130 132 121 129 93 76 69 350 331 3 308 342 6 351 3 18 73 161 292 25 359 346 15 19 45 68 38 83 34 359 91 102 255 1 19 24 33 37 39 23 312 290 339 69 269 290 1 315 221 161 161 147 162 207 54 1 232 192 278 272 269 118 160 201 229 228 221 211 203 204 203 198 196 193 190
29 25 23 32 88 93 122 135 142 138 134 151 140 128 138 124 114 57 71 104 346 16 186 315 354 345 343 11 21 41 10 356 64 332 336 23 28 43 75 24 90 68 28 68 118 195 152 53 87 83 46 355 278 282 293 55 331 280 324 31 10 51 92 105 112 121 56 50 260 233 180 185 273 229 144 180 225 234 226 218 213 205 203 203 198 197 195 192
34 34 33 49 123 107 113 113 120 141 142 144 137 139 139 110 74 57 53 110 16 345 289 13 358 337 13 28 7 9 27 17 356 345 355 22 19 30 62 341 69 79 39 43 74 33 315 330 98 101 49 275 251 269 334 77 306 311 19 29 22 30 37 52 68 82 65 333 263 223 173 154 293 251 186 191 217 214 203 206 210 206 207 206 200 196 192 190
41 43 42 50 71 98 129 113 123 148 140 133 140 137 118 63 57 88 84 264 22 341 0 16 342 6 29 40 15 359 21 7 345 14 23 10 16 23 21 6 33 56 26 19 22 353 354 5 358 277 309 345 18 347 21 22 0 27 35 25 27 3 4 17 357 39 75 265 265 241 180 149 237 259 212 210 223 193 189 198 200 203 209 208 201 198 194 192
49 53 49 48 51 59 91 134 153 152 140 136 131 101 88 48 31 94 320 319 352 328 12 349 323 15 25 31 24 348 355 7 4 37 38 20 36 40 40 31 3 32 18 350 352 357 7 6 324 299 327 25 43 23 351 356 17 35 28 41 59 4 0 12 324 6 165 244 260 250 210 207 239 250 225 216 216 204 213 217 208 205 205 204 201 198 195 194
56 57 49 43 41 41 52 109 152 147 146 141 113 51 77 79 43 231 289 339 60 294 49 20 335 20 45 38 10 334 5 21 6 32 44 62 55 34 38 34 20 66 45 6 19 9 342 317 340 356 349 18 62 60 358 336 6 19 31 78 90 74 43 306 280 335 285 265 284 53 191 257 271 291 278 228 206 203 229 253 241 216 204 201 196 192 198 204
59 54 44 35 30 29 41 88 141 147 146 133 87 48 68 80 186 173 346 280 267 351 35 42 348 16 43 48 347 330 34 30 15 40 23 34 48 8 351 7 14 43 89 66 51 48 43 312 341 24 338 0 51 76 152 183 335 329 151 117 112 137 135 235 232 231 275 279 295 319 203 214 237 307 304 291 300 261 262 276 269 227 205 198 196 200 209 215
63 51 39 27 21 20 32 83 135 150 145 108 63 62 80 118 216 135 61 260 294 353 341 3 50 46 17 359 348 348 40 17 29 54 27 29 56 12 344 342 358 26 77 66 346 47 86 257 279 330 356 59 29 317 137 117 33 290 127 85 43 178 157 186 207 209 249 310 295 289 236 213 197 256 318 5 351 314 283 278 274 242 220 195 208 220 218 223
73 51 37 24 16 15 31 90 135 150 145 91 64 63 108 176 188 147 172 243 62 206 326 354 47 60 355 330 355 351 352 24 38 48 32 39 63 11 351 299 334 19 73 106 164 18 51 277 285 333 31 80 72 344 60 90 65 334 48 52 261 188 140 133 274 299 39 22 284 269 266 295 333 318 338 11 322 292 270 258 248 236 229 216 225 229 225 229
82 58 37 21 13 14 42 101 132 135 116 78 79 94 176 181 164 170 189 49 80 123 83 37 19 53 4 344 343 332 345 23 39 45 42 32 32 11 352 297 297 22 45 130 171 161 129 291 294 232 157 204 149 58 33 44 96 87 38 253 251 86 97 105 325 343 25 334 277 288 260 288 328 305 323 347 290 275 258 247 244 238 229 229 235 235 232 233
64 89 41 18 11 18 57 102 121 113 89 66 77 110 110 96 165 199 179 133 167 74 78 104 177 87 121 73 333 319 347 16 5 34 64 23 16 60 23 309 282 47 7 27 95 61 120 336 300 248 164 294 7 42 345 338 43 102 168 240 75 75 323 19 50 325 350 298 285 304 294 268 224 233 264 239 237 249 253 247 242 240 232 229 237 240 239 241
27 84 34 7 12 44 71 98 102 76 73 75 77 115 114 85 266 232 183 134 112 82 77 121 136 66 89 116 204 305 2 50 22 41 80 49 20 93 89 310 280 342 344 55 122 277 105 107 289 284 243 316 6 34 291 311 350 29 44 3 33 129 181 211 147 185 203 271 281 312 321 283 232 212 191 209 219 225 241 247 237 238 235 230 234 237 238 240
29 88 18 353 5 60 70 72 70 47 63 99 140 129 91 130 277 280 227 159 87 95 93 133 99 78 79 99 148 303 29 62 66 64 71 58 52 10 61 186 278 316 336 23 92 331 14 111 245 298 339 326 320 324 193 192 312 4 28 8 355 4 136 218 262 175 137 184 233 300 303 270 247 204 182 205 220 216 223 233 236 238 237 235 234 234 236 238
42 96 342 348 352 214 70 56 53 44 76 86 109 98 71 138 93 341 316 278 67 104 118 120 109 107 126 97 47 354 45 39 40 72 75 344 80 288 247 186 201 294 344 25 42 11 15 111 221 291 334 301 236 255 228 196 178 152 151 173 168 170 73 68 296 297 81 155 187 219 283 271 255 192 187 206 215 218 220 224 236 241 235 234 234 232 233 233
52 97 326 352 18 100 84 55 16 48 86 65 74 97 61 98 81 356 345 11 39 54 67 86 91 87 115 112 47 75 84 57 15 60 150 215 150 193 230 181 163 165 84 44 329 285 164 98 92 277 272 240 254 293 283 181 142 126 156 167 140 129 115 129 226 266 322 300 192 135 263 271 260 200 202 217 214 222 221 211 226 240 232 228 232 231 230 229
71 128 347 357 15 90 75 62 337 35 68 68 62 53 27 77 74 358 11 20 21 47 45 46 67 76 96 167 111 97 93 106 164 167 182 221 220 215 215 168 130 116 95 71 280 269 102 72 29 295 295 303 312 323 335 60 83 101 250 155 134 146 138 151 181 188 230 273 240 99 260 270 273 227 213 232 236 241 235 215 221 234 235 232 233 230 225 220
103 160 7 12 8 96 85 94 121 76 77 87 73 35 11 68 64 31 32 10 4 83 74 48 16 80 103 101 93 109 141 116 156 222 172 188 219 217 205 187 149 138 146 200 198 240 259 74 56 348 337 340 345 345 335 333 17 207 242 189 139 116 102 119 146 111 258 241 170 150 246 260 267 245 231 252 255 251 246 232 225 231 237 241 236 235 231 220
72 81 338 17 35 63 104 145 133 121 122 98 78 35 22 52 42 58 93 29 12 127 112 78 325 83 75 71 72 61 42 88 204 280 112 207 257 276 222 207 183 174 220 212 146 135 207 179 116 95 315 307 309 305 298 287 267 249 225 204 178 133 129 150 128 103 236 239 160 167 236 264 272 253 247 252 244 248 253 245 239 238 235 231 230 233 229 215
74 50 331 1 28 51 72 84 89 102 132 115 77 29 57 64 335 308 96 61 17 73 79 45 355 61 46 53 64 23 7 34 56 103 130 233 263 286 252 209 193 207 206 167 124 98 105 205 175 164 193 219 237 250 244 196 252 270 252 224 207 168 141 127 114 167 204 191 188 223 241 272 282 275 267 259 242 246 256 247 239 237 229 230 236 235 224 211
92 82 84 42 21 38 39 21 43 78 132 128 101 61 67 55 328 338 45 60 37 58 67 42 32 56 60 73 89 254 308 357 24 99 161 226 256 292 289 208 202 221 162 134 135 101 83 296 243 182 214 230 234 252 261 247 252 256 254 234 208 186 151 143 184 214 170 121 257 248 225 249 274 279 280 275 265 261 263 247 231 225 222 230 237 231 223 215
75 124 173 114 95 89 61 38 73 79 71 81 99 99 64 46 38 30 350 349 12 37 82 45 12 7 268 187 131 145 300 353 337 243 198 231 272 327 333 248 240 278 123 94 356 111 118 268 241 179 255 262 255 264 264 249 249 247 242 237 217 189 178 192 218 210 163 190 254 256 226 241 267 279 282 280 275 266 262 244 223 220 224 230 231 226 224 223
88 109 6 30 88 137 132 99 97 82 63 59 73 78 98 95 99 192 278 357 359 0 71 116 295 316 304 237 138 140 214 195 275 260 213 192 246 330 340 265 288 23 91 93 340 118 140 260 242 173 286 282 273 274 259 227 249 261 249 241 225 201 197 211 231 214 190 226 253 263 268 267 270 274 276 276 266 256 260 247 222 226 232 233 234 231 232 232
137 140 129 65 73 80 63 55 77 80 55 43 65 71 103 121 149 209 290 67 120 316 50 131 223 265 312 147 135 177 220 184 180 240 190 164 239 217 206 226 196 14 22 98 319 348 138 279 271 99 324 288 280 292 283 221 245 271 271 262 245 227 220 227 240 223 205 238 255 263 273 273 268 263 264 272 269 255 253 243 234 234 234 235 241 242 241 240
106 121 130 110 74 6 20 36 68 89 51 16 101 138 124 164 177 162 119 197 185 214 173 160 192 218 52 68 157 237 237 181 180 218 186 171 221 212 216 230 175 153 347 93 218 352 21 291 354 54 349 280 283 331 329 314 306 285 277 271 257 239 225 223 228 208 195 224 254 269 273 269 264 246 252 269 255 234 239 239 237 242 237 234 241 247 247 244
103 98 106 103 80 3 25 32 39 77 82 334 145 151 168 208 195 142 97 258 209 192 194 174 166 153 60 312 255 245 224 186 198 217 189 189 250 243 235 221 167 162 163 149 173 340 124 136 351 39 303 274 291 343 335 339 337 294 262 244 231 226 227 236 249 233 207 201 231 246 246 261 270 192 255 273 256 241 244 238 235 245 243 237 240 245 249 249
Height
825 825 824 824 823 823 822 822 821 820 820 819 818 818 817 817 816 816 816 815 815 815 815 815 814 814 814 814 814 813 812 812 811 811 812 813 813 813 812 811 810 810 809 808 808 807 807 806 806 806 806 807 808 808 806 807 807 811 819 826 829 832 829 820 818 817 818 829 838 840 837 838 847 850 849 854 860 865 866 869 871 871 874 878 879 876 872 869
826 825 824 824 823 823 822 821 821 820 819 818 818 817 816 816 815 815 815 814 814 814 814 814 814 813 813 813 813 812 812 812 811 812 813 814 813 813 812 811 810 809 809 808 808 807 807 807 807 807 807 808 809 808 807 807 807 813 821 827 828 827 823 816 816 813 818 834 842 846 847 845 850 853 853 864 878 876 873 878 877 877 880 880 879 877 874 872
826 825 824 824 823 823 822 821 820 820 819 818 817 817 816 815 815 814 814 814 813 813 813 813 813 813 813 813 812 812 812 812 812 814 814 814 814 813 812 811 810 809 809 809 808 808 808 807 807 808 809 809 809 808 809 808 808 812 819 826 823 820 818 816 818 816 822 832 838 848 851 853 859 856 859 871 882 884 886 889 886 886 887 885 884 882 879 877
826 826 825 824 823 822 822 821 820 819 819 818 817 816 816 815 814 814 813 813 813 812 813 812 812 812 812 812 812 812 811 812 815 815 815 814 814 813 812 811 810 809 809 809 808 808 807 807 807 808 809 811 810 810 811 809 809 812 816 820 817 816 818 818 821 822 828 832 837 849 850 859 867 863 866 868 875 893 899 896 894 894 893 891 889 887 885 883
826 826 825 824 823 822 822 821 820 819 818 817 817 816 815 814 814 813 812 812 812 812 812 811 811 811 812 811 811 811 811 816 818 815 815 814 814 813 812 811 810 810 809 808 808 807 807 807 807 808 809 811 811 811 811 809 808 813 814 814 813 814 818 823 825 826 831 834 840 849 854 864 871 874 879 873 883 903 904 900 899 897 896 895 893 891 890 888
826 825 825 824 823 822 821 820 819 818 818 817 816 815 814 814 813 812 811 811 811 811 811 811 811 811 811 811 811 810 811 819 818 814 815 814 813 812 812 811 810 809 808 808 807 807 807 806 807 808 810 811 813 812 811 810 809 814 815 814 816 815 819 827 830 832 834 836 844 854 862 869 873 885 891 885 896 906 904 904 900 899 899 897 896 894 893 893
826 825 824 823 822 821 820 820 819 818 817 816 815 814 813 812 811 811 810 810 810 810 810 810 810 811 811 810 811 810 812 818 817 815 815 813 813 812 811 810 810 809 808 808 807 807 808 807 808 810 812 812 815 814 812 812 810 814 817 818 823 822 828 835 837 840 840 844 854 858 865 871 874 888 895 894 903 905 904 906 901 902 901 897 898 897 898 899
826 825 824 823 822 821 819 819 818 817 816 815 814 813 812 811 810 810 809 809 809 809 809 810 810 810 810 810 811 813 816 818 816 816 815 814 813 812 811 810 809 809 808 808 808 808 808 809 810 811 814 815 816 815 813 813 812 816 819 820 826 831 839 841 842 845 845 854 859 861 872 879 880 888 898 903 906 907 905 905 904 903 901 899 900 901 903 903
825 824 823 822 821 820 819 818 817 816 815 814 813 812 811 810 809 809 809 809 808 808 809 809 810 810 810 810 810 815 819 818 817 816 815 814 813 812 811 810 809 809 808 809 808 807 809 811 812 811 814 816 815 815 814 815 817 820 818 820 826 835 842 840 844 848 849 856 857 864 881 886 883 886 901 910 908 908 906 905 906 903 902 904 905 906 906 906
825 824 823 822 820 819 818 817 816 815 814 813 812 811 810 809 809 808 808 808 808 808 808 809 810 810 810 810 811 819 821 818 817 816 815 814 813 812 811 810 810 809 809 809 808 809 810 811 811 810 812 814 815 816 817 816 819 820 818 822 827 835 839 837 844 848 850 857 855 865 884 887 881 886 904 914 910 908 906 907 908 906 907 909 909 909 909 908
825 824 823 821 820 819 817 816 816 814 814 813 812 811 810 809 808 808 807 807 808 808 809 810 810 810 810 810 815 821 820 818 818 816 815 814 813 811 810 810 810 809 809 809 810 810 810 811 810 810 812 814 815 816 817 817 819 819 818 822 829 835 840 841 846 846 848 858 859 861 878 888 886 894 910 912 911 909 907 910 910 909 911 912 912 912 911 912
825 823 822 821 819 818 817 816 815 814 813 812 811 810 809 809 808 808 808 807 808 808 809 810 810 811 810 812 818 821 819 818 818 817 816 814 813 811 810 810 810 810 810 809 810 810 810 810 809 810 814 814 817 818 817 817 817 817 816 820 827 833 838 843 845 845 845 854 860 850 860 892 901 904 913 911 910 909 908 913 913 913 914 914 914 914 914 915
824 822 821 820 819 817 816 816 814 814 813 812 812 810 810 809 809 809 808 808 809 809 810 810 811 811 810 816 820 820 819 819 818 817 815 813 812 811 810 811 810 810 810 810 810 810 810 810 809 811 813 814 817 817 815 816 815 816 820 822 826 830 837 843 841 843 844 851 858 843 855 903 916 910 912 911 910 908 911 915 915 916 916 916 916 915 916 917
823 822 821 819 818 817 816 815 814 813 813 812 812 811 811 810 810 810 809 810 809 810 811 811 812 811 812 819 820 819 819 819 818 816 813 812 810 810 810 810 810 810 810 810 811 811 811 810 810 811 813 815 816 815 817 820 819 822 825 828 834 834 839 847 844 844 845 853 857 846 871 913 915 911 913 912 911 908 914 918 917 919 917 918 918 917 918 918
822 821 820 818 817 816 815 814 814 813 812 812 812 811 811 810 811 810 810 811 811 811 812 812 812 811 815 820 820 820 820 818 818 816 814 812 810 810 810 809 810 810 810 811 811 811 812 811 812 815 817 816 816 819 822 824 827 831 831 834 841 839 838 845 850 850 845 854 857 848 882 917 912 913 914 911 912 910 915 920 919 920 920 920 920 920 920 920
822 821 819 818 817 816 815 814 814 813 813 813 812 812 811 811 811 811 812 812 811 812 812 813 813 812 819 823 820 820 820 819 818 817 815 812 811 811 810 810 810 810 810 811 812 812 812 812 816 821 822 821 826 827 825 829 835 839 839 838 842 840 839 843 852 859 848 851 860 855 883 914 911 913 914 912 914 911 916 920 920 921 921 921 921 921 922 921
821 820 819 818 817 816 815 814 814 813 813 813 813 812 812 812 812 812 813 812 813 813 812 814 813 812 820 823 822 822 822 821 819 817 815 812 812 811 811 811 811 811 811 811 812 812 814 817 822 827 829 832 836 830 826 837 842 842 844 843 847 847 846 845 849 862 858 856 870 875 889 908 910 912 914 914 914 913 918 920 922 922 921 923 923 923 923 923
821 819 818 817 816 815 814 814 814 814 814 814 813 813 812 813 813 813 814 813 813 813 813 815 814 818 826 826 826 827 823 822 820 817 814 813 812 812 812 812 812 812 812 814 816 817 819 824 827 831 836 840 841 836 835 844 845 844 846 845 849 851 851 853 855 865 870 871 882 890 898 908 911 912 914 915 914 915 918 920 921 922 922 923 923 924 924 924
820 819 818 817 816 815 814 814 814 814 814 813 813 813 813 814 814 814 815 814 816 820 824 825 823 829 835 831 828 827 824 822 821 817 815 814 813 813 813 814 814 814 816 821 824 825 826 831 835 839 846 848 849 848 844 844 843 843 847 847 850 852 854 860 866 872 874 881 892 895 902 910 911 913 914 915 915 915 918 920 921 922 923 923 923 924 924 923
819 818 817 816 815 815 814 813 813 814 814 813 813 813 814 815 818 823 822 820 825 830 832 832 830 832 833 831 828 826 824 823 821 819 816 814 814 814 814 816 818 819 823 828 829 830 831 839 850 855 856 853 853 855 850 847 847 846 848 851 853 855 859 862 870 877 871 881 900 900 903 910 910 913 914 914 916 916 918 920 921 922 922 923 923 923 924 923
818 817 816 816 815 814 814 813 813 813 813 813 813 814 815 816 821 828 828 829 832 832 832 833 832 832 832 831 829 827 826 824 821 820 819 817 814 816 821 824 824 828 834 834 833 833 835 847 859 859 858 856 857 859 853 848 848 850 851 852 855 857 863 867 872 877 870 879 901 904 905 911 911 912 913 914 915 916 918 919 919 921 921 922 923 923 923 923
817 816 816 815 815 814 814 814 813 813 813 813 813 815 816 816 818 821 823 831 835 833 833 833 832 833 832 831 830 829 828 826 824 823 822 820 817 821 829 832 833 839 840 835 836 840 844 854 858 858 859 857 858 860 854 851 852 852 852 853 856 859 864 870 875 880 875 881 900 907 909 914 914 913 913 913 915 915 915 916 916 918 920 921 921 922 922 922
817 816 815 815 814 814 814 814 813 813 813 813 814 815 817 817 818 818 819 828 836 835 835 834 834 835 833 832 832 830 829 833 834 831 828 825 825 829 833 837 841 844 845 842 843 849 855 859 859 861 860 852 854 860 855 852 855 856 855 855 859 862 861 863 877 887 881 883 897 906 913 917 916 915 916 914 914 915 914 915 915 916 917 918 918 919 919 920
817 816 815 815 814 814 814 814 814 814 814 814 815 816 818 818 818 819 820 828 836 837 836 836 836 837 837 835 834 833 833 838 840 837 833 831 831 834 836 840 844 848 854 853 851 856 862 863 862 862 860 853 852 859 859 854 854 857 858 857 860 862 860 864 879 887 889 893 897 900 906 914 915 914 916 917 915 915 915 915 916 915 915 916 916 917 917 918
817 816 816 814 814 814 814 814 814 815 815 816 816 817 818 818 819 819 821 830 839 839 837 837 838 838 838 837 835 835 836 838 841 841 837 836 836 836 838 841 844 852 859 855 852 859 863 864 863 860 858 857 855 859 865 861 855 856 857 857 860 861 862 874 881 879 886 893 892 889 882 891 913 916 914 917 916 916 916 914 915 915 915 915 915 916 916 916
818 817 816 814 814 814 814 815 815 816 816 817 818 818 818 819 820 820 821 834 846 846 841 839 840 841 839 839 837 835 838 840 842 842 838 838 838 836 840 844 846 851 855 853 853 859 864 865 866 864 860 859 859 860 865 867 860 855 857 860 863 864 863 872 876 870 872 873 878 884 871 876 905 914 911 915 916 915 915 914 914 914 914 914 914 914 914 915
818 817 816 815 814 814 814 814 815 816 816 818 819 818 819 819 820 820 824 839 852 850 846 843 843 844 843 843 839 838 847 847 842 843 842 840 840 837 841 848 848 851 854 853 856 862 866 865 865 867 863 860 863 864 865 870 864 854 857 862 864 866 864 865 867 864 865 866 875 884 877 873 886 898 907 912 914 914 913 912 912 912 912 911 911 912 912 913
818 817 816 815 814 814 814 815 815 816 817 818 819 818 820 820 821 822 828 846 856 852 851 849 844 845 846 845 843 844 852 850 846 849 846 843 842 839 844 854 856 857 857 853 859 869 869 867 868 867 866 864 866 869 868 868 863 853 859 866 863 865 864 863 864 864 866 868 870 878 883 876 873 892 910 910 912 913 908 908 908 908 909 908 909 910 910 911
818 817 816 815 815 815 815 815 815 816 817 818 818 820 821 820 821 825 835 851 857 853 854 851 846 848 850 848 849 852 853 851 854 855 849 847 847 845 851 858 858 858 859 856 861 869 867 867 870 868 870 869 866 869 869 866 864 858 862 865 863 866 866 862 863 863 865 866 863 869 880 874 871 894 914 912 910 907 900 902 903 903 906 905 907 908 907 909
819 817 816 815 815 815 816 816 816 817 818 818 819 820 820 821 826 833 845 857 857 856 856 853 853 857 856 852 853 857 857 856 860 857 853 855 854 853 858 859 858 859 863 864 864 869 869 867 869 868 871 871 867 869 871 869 868 862 861 858 853 861 864 862 867 866 865 864 859 862 872 872 869 885 905 906 899 894 892 897 900 901 904 903 904 906 906 907
819 818 817 815 815 816 816 816 817 817 818 818 820 820 820 827 835 842 853 861 859 859 859 858 861 862 861 861 860 862 861 861 865 862 860 865 864 864 865 864 865 861 861 867 867 869 870 866 869 870 871 872 867 865 869 872 870 863 863 858 849 857 862 859 864 866 864 862 860 863 870 873 867 869 885 892 888 888 890 892 895 898 900 901 902 903 904 904
819 819 818 816 816 816 816 817 817 817 818 818 820 821 821 829 843 855 861 861 860 863 864 863 865 864 864 865 866 868 867 866 871 872 874 878 879 883 883 884 884 868 862 872 871 868 870 871 874 871 870 873 866 861 862 864 866 865 868 865 858 866 870 863 865 873 872 864 865 869 870 871 866 862 875 885 886 891 893 891 893 894 896 898 900 901 901 902
820 819 818 818 817 817 816 817 816 817 819 818 820 823 824 832 851 868 869 863 864 868 868 867 867 867 866 865 869 873 871 871 875 877 880 882 884 890 891 894 895 878 870 877 876 870 868 871 875 869 869 873 870 868 866 864 867 869 871 872 872 879 881 875 880 890 881 866 869 877 876 869 861 864 883 888 886 892 895 895 894 892 894 895 897 899 899 900
820 819 819 818 817 817 816 816 817 818 818 819 821 823 827 842 863 873 869 868 872 871 870 872 869 867 868 870 874 875 872 874 878 879 881 881 883 888 890 891 893 889 883 881 883 883 873 867 872 872 872 874 873 874 874 873 874 876 877 877 879 885 886 880 882 885 881 876 877 877 872 864 856 870 893 894 891 895 895 895 896 893 895 896 896 899 898 898
820 820 819 818 817 817 816 816 817 817 818 819 823 829 837 856 870 870 868 873 876 871 871 876 871 866 870 874 877 878 874 874 880 882 883 887 891 894 896 895 894 897 890 879 884 892 881 871 875 876 876 877 875 876 879 878 874 879 882 878 879 888 890 888 887 888 891 892 887 873 867 872 875 885 899 896 893 897 894 894 896 893 895 897 896 897 896 895
820 819 819 818 818 817 816 817 816 818 820 817 824 843 860 869 872 871 873 877 877 875 871 871 870 869 871 874 877 879 876 875 880 882 886 894 898 898 899 899 898 901 894 886 889 891 882 874 875 878 876 878 878 877 880 878 871 876 880 877 884 891 889 888 890 895 899 895 887 875 867 875 880 883 894 898 894 894 894 894 894 893 895 896 895 894 893 892
820 819 819 819 818 818 817 817 816 818 820 820 833 859 877 880 878 879 881 879 880 880 872 867 872 875 875 876 878 880 878 877 879 880 886 894 896 898 901 900 899 901 900 897 894 894 891 879 875 879 876 876 882 879 879 882 877 875 875 878 886 888 889 893 890 890 897 895 887 879 875 876 872 872 888 900 894 889 890 890 892 893 894 894 892 890 889 888
820 819 820 820 820 820 818 817 818 817 819 832 854 872 879 880 881 883 883 881 881 879 871 870 876 880 880 879 881 886 881 876 880 885 888 890 892 898 903 900 899 901 904 901 894 896 899 883 873 879 877 876 882 879 875 880 881 879 880 884 885 881 883 890 889 887 895 901 893 885 887 885 873 869 879 886 884 880 879 884 889 890 889 889 887 886 885 885
820 819 822 825 823 822 820 819 820 818 821 843 866 873 876 880 881 882 882 882 881 876 872 875 879 881 883 883 884 888 885 881 887 891 889 889 892 898 903 902 899 899 903 902 895 896 900 887 874 877 880 879 879 878 879 882 884 883 883 886 888 887 889 891 893 894 895 900 898 890 885 875 867 870 872 872 875 874 872 877 882 882 883 883 882 882 882 881
820 821 826 827 823 824 823 818 821 827 837 858 872 874 877 880 879 881 882 882 881 876 875 879 880 878 882 887 888 888 889 889 892 892 891 894 896 896 902 905 901 899 901 900 896 897 898 892 881 877 881 882 880 884 887 886 887 885 883 885 886 890 896 896 896 900 896 894 898 898 886 868 864 872 870 867 870 870 870 871 872 875 878 878 878 878 878 878
820 823 827 826 823 824 821 823 837 850 857 867 872 874 878 877 876 880 883 883 881 878 879 881 881 881 884 887 888 888 889 891 893 895 895 897 895 894 900 904 903 902 899 894 896 898 896 894 891 882 877 878 882 891 894 890 890 889 886 888 889 891 896 895 894 901 902 896 894 899 890 867 862 869 867 865 866 865 868 869 868 871 873 874 875 875 875 875
822 828 831 827 825 822 823 837 858 865 865 870 872 874 877 877 877 880 880 881 880 878 880 881 883 887 887 886 888 890 890 892 896 896 895 896 897 896 899 902 904 904 899 895 899 902 900 900 897 886 880 884 889 895 896 892 891 892 893 896 898 899 897 894 893 896 902 903 902 908 899 870 861 869 865 863 865 864 866 868 867 868 868 870 872 872 872 872
829 832 832 829 827 824 827 848 867 870 871 877 877 878 879 878 879 881 880 881 880 878 880 883 885 886 887 888 889 890 891 893 895 896 895 897 898 896 899 901 902 903 901 897 899 902 900 899 894 884 883 889 891 894 896 895 893 893 895 900 900 899 897 897 900 902 902 899 896 905 900 868 856 867 866 864 867 866 866 868 866 866 866 867 869 869 869 869
833 834 833 830 827 824 830 849 865 872 876 877 876 878 880 881 882 882 882 882 882 881 881 884 887 885 887 889 889 891 894 890 891 897 898 897 896 896 898 900 900 901 899 896 898 900 895 893 893 888 884 883 885 889 889 889 892 890 892 899 901 902 905 905 910 914 905 893 890 897 890 864 854 865 867 866 868 866 866 867 866 865 865 865 866 866 866 867
832 834 836 834 829 829 842 855 861 868 874 873 875 880 880 881 884 884 884 885 886 886 884 885 888 887 888 890 890 894 897 890 889 896 899 898 897 897 898 899 900 899 899 901 902 901 895 893 893 889 887 885 883 882 880 882 889 891 893 900 900 902 903 899 905 911 900 895 898 892 876 858 854 863 864 864 868 866 864 866 866 866 864 863 864 864 865 867
832 836 840 841 839 842 854 863 861 863 869 869 873 881 882 882 886 886 885 885 886 887 886 887 889 888 888 889 889 891 895 895 894 893 896 896 894 895 898 898 899 899 899 902 904 903 900 897 894 888 885 883 879 877 880 884 888 887 888 895 898 902 904 900 903 903 894 895 895 880 869 862 856 857 859 859 862 862 861 863 864 864 863 863 863 862 863 865
835 843 849 847 848 852 858 865 864 863 868 869 872 881 885 884 886 885 884 885 886 887 888 891 892 888 886 889 889 889 892 896 895 892 896 899 896 897 899 898 899 899 899 903 906 903 897 890 892 893 885 881 881 879 882 888 888 883 882 885 891 900 905 900 895 891 891 894 883 867 868 870 858 852 853 853 856 857 857 859 859 860 861 861 861 861 862 862
839 848 855 850 851 858 860 864 868 867 869 872 876 884 886 885 886 885 884 886 887 888 887 888 892 893 892 892 889 888 891 892 891 894 898 901 899 896 894 897 900 899 900 904 905 904 897 888 894 899 887 882 886 885 885 889 888 885 882 880 884 895 899 891 884 886 890 885 869 859 866 869 858 851 850 850 853 854 852 853 856 857 858 858 859 859 859 859
843 849 856 855 856 864 867 868 870 868 870 874 877 884 886 885 887 892 894 889 885 891 889 884 889 896 897 895 890 887 888 884 883 891 896 898 900 897 892 892 897 902 902 900 902 907 898 888 896 903 891 883 883 882 885 888 884 880 878 876 878 886 890 885 880 884 887 880 869 866 870 868 857 851 850 849 850 852 851 852 854 855 855 856 856 857 857 857
840 843 850 854 859 868 869 870 869 866 871 878 879 883 890 889 889 894 899 892 884 889 891 885 891 898 898 897 892 885 886 885 881 888 894 895 896 898 894 889 892 900 901 898 903 907 896 890 900 905 895 883 874 873 879 884 882 877 874 873 876 880 884 885 883 884 886 882 874 873 876 870 855 848 849 849 849 851 851 851 852 852 853 853 854 854 854 854
837 840 843 846 860 871 869 871 874 867 869 879 880 884 889 890 891 893 896 898 892 889 891 889 892 899 900 898 892 886 890 894 890 892 896 894 892 895 894 892 893 894 894 898 903 901 896 896 900 902 895 880 872 874 877 878 882 880 872 868 871 876 877 876 875 876 875 871 869 874 874 860 845 844 848 848 849 850 849 849 850 850 851 852 852 851 851 851
837 841 842 843 859 876 875 874 876 869 871 882 886 887 888 888 893 893 887 893 899 895 895 896 895 896 894 891 891 891 895 898 896 897 899 897 897 897 895 895 896 892 891 898 903 904 904 897 894 899 893 875 874 883 884 882 880 868 855 849 851 859 866 866 866 867 865 862 861 861 853 841 839 846 847 845 847 848 847 847 848 847 848 849 849 849 848 848